Regional Weather Roundup
Issued by NWS

Home | Current Version | Previous Version | Graphics & Text | Print | Product List | Glossary Off
Versions: 1 2 3 4 5 6 7 8 9 10 11 12 13 14 15 16 17 18 19 20 21 22 23 24 25 26 27 28 29 30 31 32 33 34 35 36 37 38 39 40 41 42 43 44 45 46 47 48 49 50

749
ASUS43 KMKX 220800
RWRWI

WISCONSIN REGIONAL WEATHER ROUNDUP
NATIONAL WEATHER SERVICE MILWAUKEE/SULLIVAN WI
200 AM CST WED FEB 22 2017

NOTE: "FAIR" INDICATES FEW OR NO CLOUDS BELOW 12,000 FEET WITH NO
SIGNIFICANT WEATHER AND/OR OBSTRUCTIONS TO VISIBILITY.

WIZ001-002-006>008-014>016-023>028-220900-
NORTHWEST WISCONSIN

CITY           SKY/WX    TMP DP  RH WIND       PRES   REMARKS
SUPERIOR ARPT  CLOUDY    34  33  96 CALM      29.65F
ASHLAND        CLOUDY    40  37  89 S7        29.66F
HAYWARD        PTCLDY    37  35  92 CALM      29.66F
SIREN          CLOUDY    34  33  98 SE3       29.67F
CUMBERLAND     FOG       34  32  93 CALM      29.67F VSB 1/4
RICE LAKE      PTCLDY    36  35  96 CALM      29.69F
CHETEK         PTCLDY    37  36  99 CALM      29.68F
LADYSMITH      CLOUDY    38  34  87 SE3       29.70F
EAU CLAIRE     NOT AVBL
MENOMONIE      CLOUDY    41  38  87 E3        29.69S
NEW RICHMOND   CLOUDY    37  37  99 CALM      29.68F FOG
OSCEOLA        FOG       37  37 100 CALM      29.70F VSB 1/4
$$

WIZ003>005-009-010-017-018-220900-
NORTH CENTRAL WISCONSIN

CITY           SKY/WX    TMP DP  RH WIND       PRES   REMARKS
MANITOWISH WTR CLOUDY    43  36  76 SW3       29.69R
ARBOR VITAE    PTCLDY    42  35  75 S3          N/A
WOODRUFF       PTCLDY    42  35  75 S3          N/A
RHINELANDER    CLOUDY    46  35  65 SW8       29.69F
EAGLE RIVER    CLOUDY    44  31  60 S3        29.69F
LAND O LAKES   CLOUDY    44  32  64 SW3       29.70F
PHILLIPS       CLOUDY    43  36  74 S5        29.68S
TOMAHAWK       PTCLDY    41  32  72 CALM      29.70F
MEDFORD        CLOUDY    41  35  79 S5        29.70S
MERRILL        NOT AVBL
$$

WIZ029-030-035-036-043>047-220900-
CENTRAL WISCONSIN

CITY           SKY/WX    TMP DP  RH WIND       PRES   REMARKS
WAUSAU         PTCLDY    42  34  73 CALM      29.70F
MOSINEE        CLEAR     39  34  81 S9        29.72F WCI  33
MARSHFIELD     CLEAR     44  36  73 SW5       29.70F
STEVENS POINT  CLEAR     40  33  78 CALM      29.73F
WAUPACA        CLEAR     46  35  64 S3        29.74F
WAUTOMA        CLEAR     36  33  89 CALM      29.74F
WISC RAPIDS    CLEAR     42  36  79 S3        29.72F
CAMP DOUGLAS   NOT AVBL
$$

WIZ011>013-019>022-031-037>040-048>050-220900-
NORTHEAST WISCONSIN

CITY           SKY/WX    TMP DP  RH WIND       PRES   REMARKS
ANTIGO         PTCLDY    40  33  75 SW7       29.72F
SHAWANO        CLEAR     47  36  64 CALM      29.73F
OCONTO         CLOUDY    41  36  81 CALM      29.74S
STURGEON BAY   CLOUDY    47  39  74 S6        29.75S
GREEN BAY      CLOUDY    45  38  76 S5        29.74F
MANITOWOC      NOT AVBL
APPLETON       CLEAR     43  34  70 S8        29.72F
CLINTONVILLE   CLEAR     41  34  75 CALM      29.72F
OSHKOSH        CLEAR     47  39  74 S12       29.73F
$$

WIZ032>034-041-042-053>061-220900-
SOUTHWEST WISCONSIN

CITY           SKY/WX    TMP DP  RH WIND       PRES   REMARKS
LA CROSSE      CLEAR     48  38  68 S10       29.71F
SPARTA         CLEAR     42  37  82 CALM      29.73F
VIROQUA        CLEAR     44  37  74 S8        29.73F
BOSCOBEL       CLEAR     37  34  89 SW6       29.76F WCI  32
PRAIRIE DU CHI CLEAR     46  38  75 CALM      29.76F
PLATTEVILLE    CLEAR     44  42  94 S6        29.80S
$$

WIZ056-057-062-063-064-067-068-220900-
SOUTH CENTRAL WISCONSIN

CITY           SKY/WX    TMP DP  RH WIND       PRES   REMARKS
REEDSBURG      CLEAR     50  41  72 S13       29.74F
BARABOO/DELLS  CLEAR     49  37  63 SW10      29.75F
LONE ROCK      NOT AVBL
MINERAL POINT  CLEAR     46  43  87 S9        29.79F
MADISON        CLEAR     44  39  82 S7        29.78F
MIDDLETON      CLEAR     50  42  74 SW7       29.78F
WATERTOWN      CLEAR     43  40  90 S5        29.79F
MONROE         CLEAR     46  43  87 SW15      29.80S
JANESVILLE     CLEAR     46  46 100 S5        29.80F
$$

WIZ051-052-058>065-066-070>072-220900-
SOUTHEAST WISCONSIN

CITY           SKY/WX    TMP DP  RH WIND       PRES   REMARKS
MILWAUKEE      CLEAR     42  39  89 SE3       29.80F
WAUKESHA       CLEAR     45  41  87 CALM      29.81S
MILWAUKEE/TIMM CLEAR     39  36  87 SW3       29.81S
RACINE         CLEAR     51  49  92 SW9       29.82F FOG
KENOSHA        FOG       50  48  93 SW7       29.81F VSB 1
FOND DU LAC    CLEAR     48  38  68 S9        29.76F
SHEBOYGAN      CLOUDY    43  38  82 S8        29.77F
WEST BEND      CLEAR     41  37  87 CALM      29.79F
JUNEAU         CLEAR     44  38  80 S8        29.79F
$$

LSZ147-162-220900-
LAKE SUPERIOR

STATION/POSITION TIME  TEMP    WIND        PRES    WAVE
                       AIR SEA DIR/SP/G            HT/PER
                 (UTC) (F)     (DEG/KT/KT) (MB)    (FT/S)
DEVILS ISLAND    0700   36      50/  1/  2 1004.8F
PORT WING        0730   33     160/  3/  5 1004.4F
SAXON HARBOR     0730   40     190/  2/  5 1004.4S
$$

LMZ867-665-643>646-220900-
LAKE MICHIGAN

STATION/POSITION TIME  TEMP    WIND        PRES    WAVE
                       AIR SEA DIR/SP/G            HT/PER
                 (UTC) (F)     (DEG/KT/KT) (MB)    (FT/S)
CHAMBERS ISLAND  0740   47     170/  5/  8 1006.8F
NORTHPORT PIER   0740   40      CALM  /  4 1007.5F
SISTER BAY       0650   47     160/ 11/ 14   N/A
ALGOMA LAKESHORE 0710             CALM       N/A
KEWAUNEE LAKESHO 0730   38     170/  9/ 10 1007.3F
SHEBOYGAN LAKESH 0700   43     180/  8/  8 1008.6F
PORT WASHINGTON  0740   39     190/  4/  7 1009.8F
MILWAUKEE LAKESH 0740   46     190/  6/  6   N/A
KENOSHA   LAKESH 0700   51     210/  5/  7 1010.2
$$

TC  - TEMPERATURE IN CELSIUS
VSB - VISIBILITY IN STATUTE MILES
WCI - WIND CHILL INDEX
HX  - HEAT INDEX





USA.gov is the U.S. government's official web portal to all federal, state and local government web resources and services.